CZ-8A R/B, 67245

Orbit data source: Space-Track

CZ-8A R/B, 67245 is space debris in LEO originally from a launch on Thu, 25 Dec 2025 UTC launched from the Wenchang Satellite Launch Center (WSC). Debris objects in space refer to the collection of defunct objects orbiting the Earth. Examples of debris include non-operational satellites, rocket bodies, and fragments generated from explosions, collisions, or faulty payload assembly.

Loading next visibility...
Identifier
67245, 2025-311K
Orbit
LEO
Country
Flag of CNCN / PRC
Related business
Manufacturer
CALT
Mission
Spacecraft
Bus & Motor
CZ-8A STAGE 2, Unknown motor
Mass
~2,800 kg wet, ~2,800 kg dry
Launch date (UTC)
2025-12-25 (6 months ago)
Launch vehicle
Unknown
Launch site
Wenchang Satellite Launch Center (WSC)
Object type
Payload
Rocket body
Debris
Shape & HBR
Cyl, 1.1 m
Radar Cross Section
36.967 m², Large (>1 m²)

Expand to show TLE details & history
Last TLE update: 1 day ago

TLE from 1 day ago
0 CZ-8A R/B
1 67245U 25311K   26162.96473526  .00000055  00000-0  10787-3 0  9991
2 67245  50.0044  61.5058 0089165 297.7608  61.4281 14.12640412 23756
Epoch: 2026-06-11T23:09Z
TLE epoch observation values (Epoch: 2026-06-11T23:09:13.126Z)
Latitude
0.00002°
Longitude
173.90015°
Altitude
820.5 km
Speed
7.46 km/s
True Right ascension
04h 06m 01s
True Declination
0° 00' 00"
Sunlit
Object was in daylight at epoch
Visualization orbit readout
Latitude
Unknown
Longitude
Unknown
Altitude
Unknown
Speed
Unknown
Apparent Right ascension
Unknown
Apparent Declination
Unknown
Sunlit
N/A
Visualization observer readout
Local Sidereal Time
12:47:29
Azimuth
Unknown
Elevation
Unknown
Doppler factor
Unknown
Orbital elements
Apogee altitude
915.543 km
Perigee altitude
786.625 km
Semi-major axis
7,229.221 km
Eccentricity
0.00892
Inclination
50.0044°
RAAN
61.5058°
Arg. of periapsis
297.7608°
True anomaly
62.33019°
Mean anomaly
61.4281°
Eccentric anomaly
61.87867°
Mean motion
3.53107 °/min
Orbital period
101.95 mins
BSTAR
0.00010787
Loading maneuver chart data...
Computing Atmospheric mass density...
Loading historical data...
Loading historical data...
Loading historical data...
Loading historical data...
Loading historical data...
Loading historical data...
Loading historical data...

Documentation

Showing up to 5 results
|